| time (UTC) | temp C | wind direction | speed KPH | gust KPH | rain 1hr cm | rain 24hr cm | rain mn cm | humidity % | barometer mb |
| 20260505201006 | 27 | 242 | 14.5 | 24.1 | 0.00 | 0.00 | 0.00 | 70 | 1005.7 |
| 20260505200508 | 27 | 241 | 16.1 | 29.0 | 0.00 | 0.00 | 0.00 | 71 | 1005.8 |
| 20260505200023 | 27 | 213 | 16.1 | 29.0 | 0.00 | 0.00 | 0.00 | 71 | 1005.9 |
| 20260505195510 | 27 | 237 | 16.1 | 29.0 | 0.00 | 0.00 | 0.00 | 73 | 1005.8 |
| 20260505195011 | 27 | 200 | 16.1 | 25.7 | 0.00 | 0.00 | 0.00 | 73 | 1005.6 |
| 20260505194526 | 27 | 202 | 16.1 | 32.2 | 0.00 | 0.00 | 0.00 | 72 | 1005.7 |
| 20260505194010 | 27 | 237 | 19.3 | 32.2 | 0.00 | 0.00 | 0.00 | 71 | 1005.7 |
| 20260505193503 | 26 | 212 | 14.5 | 25.7 | 0.00 | 0.00 | 0.00 | 71 | 1005.8 |
| 20260505193033 | 26 | 203 | 17.7 | 24.1 | 0.00 | 0.00 | 0.00 | 73 | 1005.9 |
| 20260505192512 | 26 | 234 | 16.1 | 29.0 | 0.00 | 0.00 | 0.00 | 72 | 1005.9 |
| 20260505192006 | 26 | 225 | 14.5 | 29.0 | 0.00 | 0.00 | 0.00 | 72 | 1006.0 |
| 20260505191521 | 26 | 199 | 16.1 | 29.0 | 0.00 | 0.00 | 0.00 | 72 | 1006.0 |
| 20260505191007 | 26 | 219 | 14.5 | 22.5 | 0.00 | 0.00 | 0.00 | 73 | 1006.0 |
| 20260505190510 | 26 | 225 | 11.3 | 24.1 | 0.00 | 0.00 | 0.00 | 73 | 1006.0 |
| 20260505190025 | 26 | 238 | 11.3 | 25.7 | 0.00 | 0.00 | 0.00 | 74 | 1005.9 |
| 20260505185512 | 26 | 217 | 14.5 | 32.2 | 0.00 | 0.00 | 0.00 | 72 | 1005.9 |
| 20260505185012 | 26 | 198 | 19.3 | 29.0 | 0.00 | 0.00 | 0.00 | 71 | 1006.0 |
| 20260505184534 | 26 | 197 | 16.1 | 25.7 | 0.00 | 0.00 | 0.00 | 72 | 1006.1 |
| 20260505184007 | 26 | 238 | 17.7 | 29.0 | 0.00 | 0.00 | 0.00 | 71 | 1006.0 |
| 20260505183512 | 26 | 198 | 17.7 | 30.6 | 0.00 | 0.00 | 0.00 | 71 | 1006.1 |
| 20260505183029 | 26 | 194 | 19.3 | 30.6 | 0.00 | 0.00 | 0.00 | 71 | 1006.0 |
| 20260505182507 | 26 | 215 | 17.7 | 30.6 | 0.00 | 0.00 | 0.00 | 71 | 1006.0 |
| 20260505182007 | 26 | 234 | 17.7 | 32.2 | 0.00 | 0.00 | 0.00 | 73 | 1006.0 |
| 20260505181517 | 26 | 233 | 20.9 | 32.2 | 0.00 | 0.00 | 0.00 | 72 | 1006.2 |
| 20260505181004 | 26 | 227 | 19.3 | 32.2 | 0.00 | 0.00 | 0.00 | 71 | 1006.1 |
| 20260505180511 | 26 | 230 | 19.3 | 29.0 | 0.00 | 0.00 | 0.00 | 72 | 1006.2 |
| 20260505180022 | 26 | 244 | 17.7 | 24.1 | 0.00 | 0.00 | 0.00 | 72 | 1006.2 |
| 20260505175507 | 26 | 224 | 16.1 | 30.6 | 0.00 | 0.00 | 0.00 | 72 | 1006.3 |
| 20260505175007 | 26 | 217 | 17.7 | 30.6 | 0.00 | 0.00 | 0.00 | 72 | 1006.4 |
| 20260505174538 | 26 | 213 | 14.5 | 30.6 | 0.00 | 0.00 | 0.00 | 73 | 1006.4 |
| 20260505174010 | 26 | 203 | 16.1 | 30.6 | 0.00 | 0.00 | 0.00 | 73 | 1006.5 |
| 20260505173507 | 26 | 188 | 17.7 | 25.7 | 0.00 | 0.00 | 0.00 | 72 | 1006.6 |
| 20260505173029 | 26 | 234 | 9.7 | 29.0 | 0.00 | 0.00 | 0.00 | 73 | 1006.6 |
| 20260505172509 | 25 | 207 | 16.1 | 29.0 | 0.00 | 0.00 | 0.00 | 74 | 1006.7 |
| 20260505172012 | 25 | 237 | 19.3 | 30.6 | 0.00 | 0.00 | 0.00 | 74 | 1006.8 |
| 20260505171528 | 25 | 194 | 14.5 | 30.6 | 0.00 | 0.00 | 0.00 | 74 | 1006.8 |
| 20260505171004 | 25 | 223 | 19.3 | 30.6 | 0.00 | 0.00 | 0.00 | 75 | 1006.8 |
| 20260505170503 | 25 | 209 | 14.5 | 30.6 | 0.00 | 0.00 | 0.00 | 74 | 1006.8 |
| 20260505170021 | 25 | 221 | 17.7 | 30.6 | 0.00 | 0.00 | 0.00 | 74 | 1006.6 |
| 20260505165506 | 25 | 188 | 19.3 | 29.0 | 0.00 | 0.00 | 0.00 | 73 | 1006.6 |
| 20260505165008 | 25 | 204 | 17.7 | 29.0 | 0.00 | 0.00 | 0.00 | 75 | 1006.5 |
| 20260505164524 | 25 | 201 | 17.7 | 29.0 | 0.00 | 0.00 | 0.00 | 74 | 1006.2 |
| 20260505164008 | 25 | 223 | 19.3 | 32.2 | 0.00 | 0.00 | 0.00 | 74 | 1006.2 |
| 20260505163510 | 25 | 196 | 16.1 | 32.2 | 0.00 | 0.00 | 0.00 | 76 | 1006.4 |
| 20260505163033 | 25 | 242 | 16.1 | 29.0 | 0.00 | 0.00 | 0.00 | 76 | 1006.4 |
| 20260505162506 | 24 | 212 | 17.7 | 30.6 | 0.00 | 0.00 | 0.00 | 76 | 1006.3 |
| 20260505162014 | 24 | 218 | 16.1 | 30.6 | 0.00 | 0.00 | 0.00 | 77 | 1006.2 |
| 20260505161530 | 24 | 242 | 14.5 | 33.8 | 0.00 | 0.00 | 0.00 | 78 | 1006.3 |
| 20260505161005 | 23 | 246 | 14.5 | 33.8 | 0.00 | 0.00 | 0.00 | 78 | 1006.4 |
| 20260505160504 | 23 | 207 | 12.9 | 29.0 | 0.00 | 0.00 | 0.00 | 78 | 1006.4 |
| 20260505153028 | 23 | 234 | 16.1 | 32.2 | 0.00 | 0.00 | 0.00 | 79 | 1006.5 |
| 20260505152504 | 23 | 207 | 16.1 | 32.2 | 0.00 | 0.00 | 0.00 | 80 | 1006.4 |
| 20260505152005 | 23 | 236 | 16.1 | 27.4 | 0.00 | 0.00 | 0.00 | 80 | 1006.5 |
| 20260505151517 | 23 | 207 | 16.1 | 25.7 | 0.00 | 0.00 | 0.00 | 80 | 1006.4 |
| 20260505151003 | 23 | 213 | 16.1 | 27.4 | 0.00 | 0.00 | 0.00 | 80 | 1006.3 |
| 20260505150509 | 23 | 180 | 17.7 | 27.4 | 0.00 | 0.00 | 0.00 | 80 | 1006.2 |
| 20260505140505 | 21 | 198 | 12.9 | 25.7 | 0.00 | 0.00 | 0.00 | 84 | 1006.4 |
| 20260505125008 | 21 | 200 | 9.7 | 29.0 | 0.00 | 0.00 | 0.00 | 85 | 1006.1 |
| 20260505124517 | 21 | 198 | 11.3 | 29.0 | 0.00 | 0.00 | 0.00 | 85 | 1006.0 |
| 20260505124008 | 21 | 209 | 11.3 | 20.9 | 0.00 | 0.00 | 0.00 | 85 | 1006.1 |
| 20260505123507 | 21 | 210 | 12.9 | 17.7 | 0.00 | 0.00 | 0.00 | 85 | 1006.0 |
| 20260505123030 | 21 | 232 | 11.3 | 20.9 | 0.00 | 0.00 | 0.00 | 86 | 1005.9 |
| 20260505122510 | 21 | 234 | 14.5 | 24.1 | 0.00 | 0.00 | 0.00 | 86 | 1005.7 |
| 20260505122007 | 21 | 211 | 14.5 | 24.1 | 0.00 | 0.00 | 0.00 | 86 | 1005.6 |
| 20260505121527 | 21 | 205 | 9.7 | 17.7 | 0.00 | 0.00 | 0.00 | 86 | 1005.7 |
| 20260505121009 | 20 | 241 | 9.7 | 25.7 | 0.00 | 0.00 | 0.00 | 86 | 1005.6 |
| 20260505120512 | 20 | 224 | 12.9 | 25.7 | 0.00 | 0.00 | 0.00 | 85 | 1005.5 |
| 20260505120028 | 20 | 198 | 12.9 | 24.1 | 0.00 | 0.00 | 0.00 | 85 | 1005.4 |
| 20260505115503 | 20 | 221 | 12.9 | 24.1 | 0.00 | 0.00 | 0.00 | 85 | 1005.4 |
| 20260505115009 | 20 | 206 | 12.9 | 22.5 | 0.00 | 0.00 | 0.00 | 85 | 1005.3 |
| 20260505114519 | 20 | 206 | 11.3 | 25.7 | 0.00 | 0.00 | 0.00 | 85 | 1005.3 |
| 20260505114007 | 20 | 224 | 12.9 | 25.7 | 0.00 | 0.00 | 0.00 | 85 | 1005.3 |
| 20260505113502 | 20 | 233 | 9.7 | 20.9 | 0.00 | 0.00 | 0.00 | 85 | 1005.2 |
| 20260505113023 | 20 | 206 | 14.5 | 20.9 | 0.00 | 0.00 | 0.00 | 85 | 1005.2 |
| 20260505112505 | 20 | 210 | 11.3 | 22.5 | 0.00 | 0.00 | 0.00 | 85 | 1005.3 |
| 20260505112007 | 20 | 225 | 14.5 | 22.5 | 0.00 | 0.00 | 0.00 | 85 | 1005.3 |
| 20260505111524 | 20 | 211 | 14.5 | 22.5 | 0.00 | 0.00 | 0.00 | 84 | 1005.3 |
| 20260505111006 | 21 | 209 | 12.9 | 24.1 | 0.00 | 0.00 | 0.00 | 84 | 1005.3 |
| 20260505110509 | 20 | 202 | 12.9 | 24.1 | 0.00 | 0.00 | 0.00 | 84 | 1005.2 |
| 20260505102006 | 21 | 205 | 16.1 | 32.2 | 0.00 | 0.00 | 0.00 | 83 | 1005.5 |
| 20260505101522 | 21 | 222 | 16.1 | 32.2 | 0.00 | 0.00 | 0.00 | 83 | 1005.6 |
| 20260505101006 | 21 | 227 | 12.9 | 22.5 | 0.00 | 0.00 | 0.00 | 83 | 1005.6 |
| 20260505100506 | 21 | 201 | 16.1 | 22.5 | 0.00 | 0.00 | 0.00 | 83 | 1005.6 |
| 20260505100028 | 21 | 211 | 11.3 | 25.7 | 0.00 | 0.00 | 0.00 | 83 | 1005.8 |
| 20260505095507 | 21 | 187 | 12.9 | 25.7 | 0.00 | 0.00 | 0.00 | 83 | 1005.6 |
| 20260505095012 | 21 | 211 | 11.3 | 25.7 | 0.00 | 0.00 | 0.00 | 83 | 1005.8 |
| 20260505094530 | 21 | 220 | 16.1 | 27.4 | 0.00 | 0.00 | 0.00 | 83 | 1005.7 |
| 20260505094010 | 21 | 204 | 16.1 | 25.7 | 0.00 | 0.00 | 0.00 | 83 | 1005.7 |
| 20260505093510 | 21 | 204 | 16.1 | 25.7 | 0.00 | 0.00 | 0.00 | 83 | 1005.7 |
| 20260505093037 | 21 | 229 | 11.3 | 24.1 | 0.00 | 0.00 | 0.00 | 83 | 1005.7 |
| 20260505092504 | 21 | 201 | 12.9 | 24.1 | 0.00 | 0.00 | 0.00 | 83 | 1005.6 |
| 20260505092008 | 21 | 246 | 14.5 | 25.7 | 0.00 | 0.00 | 0.00 | 83 | 1005.6 |
| 20260505091524 | 21 | 218 | 16.1 | 25.7 | 0.00 | 0.00 | 0.00 | 84 | 1005.5 |
| 20260505091008 | 21 | 217 | 11.3 | 22.5 | 0.00 | 0.00 | 0.00 | 84 | 1005.6 |
| 20260505090507 | 21 | 211 | 9.7 | 20.9 | 0.00 | 0.00 | 0.00 | 84 | 1005.7 |
| 20260505090024 | 21 | 237 | 12.9 | 25.7 | 0.00 | 0.00 | 0.00 | 83 | 1005.7 |
| 20260505085507 | 21 | 238 | 16.1 | 25.7 | 0.00 | 0.00 | 0.00 | 83 | 1005.6 |
| 20260505085011 | 21 | 191 | 12.9 | 30.6 | 0.00 | 0.00 | 0.00 | 83 | 1005.5 |
| 20260505084528 | 21 | 237 | 17.7 | 30.6 | 0.00 | 0.00 | 0.00 | 83 | 1005.4 |
| 20260505084009 | 21 | 229 | 14.5 | 25.7 | 0.00 | 0.00 | 0.00 | 83 | 1005.5 |
| 20260505083508 | 20 | 207 | 14.5 | 25.7 | 0.00 | 0.00 | 0.00 | 83 | 1005.6 |
| 20260505083033 | 20 | 227 | 16.1 | 25.7 | 0.00 | 0.00 | 0.00 | 83 | 1005.5 |
| 20260505082508 | 20 | 210 | 14.5 | 27.4 | 0.00 | 0.00 | 0.00 | 83 | 1005.5 |
| 20260505082007 | 20 | 225 | 14.5 | 29.0 | 0.00 | 0.00 | 0.00 | 83 | 1005.7 |
| 20260505081532 | 20 | 229 | 16.1 | 29.0 | 0.00 | 0.00 | 0.00 | 83 | 1005.8 |
| 20260505081007 | 20 | 198 | 14.5 | 25.7 | 0.00 | 0.00 | 0.00 | 83 | 1005.9 |
| 20260505080507 | 20 | 216 | 11.3 | 29.0 | 0.00 | 0.00 | 0.00 | 83 | 1005.9 |
| 20260505080026 | 20 | 223 | 16.1 | 29.0 | 0.00 | 0.00 | 0.00 | 83 | 1006.1 |
| 20260505075508 | 20 | 180 | 16.1 | 27.4 | 0.00 | 0.00 | 0.00 | 83 | 1006.1 |
| 20260505075008 | 21 | 238 | 16.1 | 32.2 | 0.00 | 0.00 | 0.00 | 82 | 1006.1 |
| 20260505074528 | 21 | 200 | 14.5 | 32.2 | 0.00 | 0.00 | 0.00 | 82 | 1006.1 |
| 20260505074008 | 21 | 182 | 19.3 | 30.6 | 0.00 | 0.00 | 0.00 | 82 | 1006.1 |
| 20260505073511 | 21 | 200 | 16.1 | 24.1 | 0.00 | 0.00 | 0.00 | 82 | 1006.1 |
| 20260505073037 | 21 | 211 | 12.9 | 29.0 | 0.00 | 0.00 | 0.00 | 81 | 1006.2 |
| 20260505072511 | 21 | 174 | 12.9 | 29.0 | 0.00 | 0.00 | 0.00 | 81 | 1006.1 |
| 20260505072010 | 21 | 204 | 17.7 | 24.1 | 0.00 | 0.00 | 0.00 | 81 | 1006.1 |
| 20260505071529 | 21 | 221 | 17.7 | 27.4 | 0.00 | 0.00 | 0.00 | 81 | 1006.2 |
| 20260505071004 | 21 | 221 | 16.1 | 27.4 | 0.00 | 0.00 | 0.00 | 81 | 1006.2 |
| 20260505070509 | 21 | 211 | 14.5 | 24.1 | 0.00 | 0.00 | 0.00 | 80 | 1006.3 |
| 20260505070024 | 21 | 186 | 14.5 | 27.4 | 0.00 | 0.00 | 0.00 | 80 | 1006.4 |
| 20260505065510 | 21 | 210 | 16.1 | 27.4 | 0.00 | 0.00 | 0.00 | 80 | 1006.5 |
| 20260505065009 | 21 | 240 | 14.5 | 29.0 | 0.00 | 0.00 | 0.00 | 80 | 1006.5 |
| 20260505064527 | 21 | 245 | 17.7 | 29.0 | 0.00 | 0.00 | 0.00 | 79 | 1006.6 |
| 20260505064005 | 21 | 213 | 14.5 | 29.0 | 0.00 | 0.00 | 0.00 | 79 | 1006.6 |
| 20260505063504 | 21 | 194 | 20.9 | 29.0 | 0.00 | 0.00 | 0.00 | 79 | 1006.7 |
| 20260505063012 | 21 | 242 | 14.5 | 33.8 | 0.00 | 0.00 | 0.00 | 79 | 1006.8 |
| 20260505062505 | 21 | 234 | 17.7 | 33.8 | 0.00 | 0.00 | 0.00 | 78 | 1006.8 |
| 20260505062003 | 21 | 203 | 17.7 | 29.0 | 0.00 | 0.00 | 0.00 | 78 | 1006.7 |
| 20260505061515 | 21 | 215 | 14.5 | 29.0 | 0.00 | 0.00 | 0.00 | 78 | 1006.7 |
| 20260505061005 | 21 | 202 | 14.5 | 24.1 | 0.00 | 0.00 | 0.00 | 77 | 1006.8 |
| 20260505060507 | 21 | 193 | 12.9 | 27.4 | 0.00 | 0.00 | 0.00 | 77 | 1006.8 |
| 20260505060027 | 21 | 221 | 17.7 | 29.0 | 0.00 | 0.00 | 0.00 | 77 | 1006.8 |
| 20260505055507 | 21 | 234 | 12.9 | 29.0 | 0.00 | 0.00 | 0.00 | 77 | 1006.9 |
| 20260505055007 | 21 | 212 | 17.7 | 29.0 | 0.00 | 0.00 | 0.00 | 77 | 1006.9 |
| 20260505054534 | 21 | 209 | 16.1 | 29.0 | 0.00 | 0.00 | 0.00 | 76 | 1006.9 |
| 20260505054014 | 21 | 203 | 12.9 | 24.1 | 0.00 | 0.00 | 0.00 | 76 | 1007.0 |
| 20260505053511 | 22 | 220 | 12.9 | 24.1 | 0.00 | 0.00 | 0.00 | 76 | 1007.0 |
| 20260505053038 | 22 | 173 | 14.5 | 24.1 | 0.00 | 0.00 | 0.00 | 76 | 1007.1 |
| 20260505052502 | 22 | 225 | 14.5 | 25.7 | 0.00 | 0.00 | 0.00 | 76 | 1007.2 |
| 20260505052001 | 22 | 207 | 17.7 | 25.7 | 0.00 | 0.00 | 0.00 | 76 | 1007.2 |
| 20260505051514 | 22 | 219 | 11.3 | 24.1 | 0.00 | 0.00 | 0.00 | 75 | 1007.2 |
| 20260505051003 | 22 | 206 | 11.3 | 29.0 | 0.00 | 0.00 | 0.00 | 75 | 1007.2 |
| 20260505050508 | 22 | 214 | 14.5 | 29.0 | 0.00 | 0.00 | 0.00 | 75 | 1007.2 |
| 20260505041528 | 22 | 234 | 11.3 | 20.9 | 0.00 | 0.00 | 0.00 | 73 | 1007.4 |
| 20260505041004 | 22 | 167 | 11.3 | 20.9 | 0.00 | 0.00 | 0.00 | 73 | 1007.5 |
| 20260505040503 | 22 | 189 | 8.0 | 20.9 | 0.00 | 0.00 | 0.00 | 73 | 1007.5 |
| 20260505040013 | 22 | 228 | 8.0 | 19.3 | 0.00 | 0.00 | 0.00 | 73 | 1007.6 |
| 20260505035508 | 22 | 201 | 12.9 | 19.3 | 0.00 | 0.00 | 0.00 | 73 | 1007.5 |
| 20260505035005 | 22 | 234 | 8.0 | 17.7 | 0.00 | 0.00 | 0.00 | 73 | 1007.6 |
| 20260505034523 | 22 | 175 | 8.0 | 17.7 | 0.00 | 0.00 | 0.00 | 73 | 1007.7 |
| 20260505034008 | 22 | 176 | 8.0 | 12.9 | 0.00 | 0.00 | 0.00 | 73 | 1007.7 |
| 20260505033506 | 22 | 211 | 9.7 | 14.5 | 0.00 | 0.00 | 0.00 | 72 | 1007.6 |
| 20260505033022 | 22 | 208 | 9.7 | 22.5 | 0.00 | 0.00 | 0.00 | 72 | 1007.6 |
| 20260505032508 | 22 | 209 | 8.0 | 22.5 | 0.00 | 0.00 | 0.00 | 72 | 1007.6 |
| 20260505032011 | 22 | 230 | 11.3 | 22.5 | 0.00 | 0.00 | 0.00 | 72 | 1007.8 |
| 20260505031526 | 22 | 213 | 8.0 | 14.5 | 0.00 | 0.00 | 0.00 | 72 | 1007.8 |
| 20260505031010 | 22 | 211 | 8.0 | 12.9 | 0.00 | 0.00 | 0.00 | 71 | 1007.7 |
| 20260505030510 | 22 | 184 | 6.4 | 16.1 | 0.00 | 0.00 | 0.00 | 71 | 1007.8 |
| 20260505030030 | 22 | 231 | 9.7 | 16.1 | 0.00 | 0.00 | 0.00 | 71 | 1007.8 |
| 20260505025509 | 22 | 213 | 8.0 | 12.9 | 0.00 | 0.00 | 0.00 | 71 | 1007.8 |
| 20260505025010 | 22 | 196 | 6.4 | 14.5 | 0.00 | 0.00 | 0.00 | 71 | 1007.7 |
| 20260505024517 | 22 | 218 | 6.4 | 14.5 | 0.00 | 0.00 | 0.00 | 71 | 1007.8 |
| 20260505024008 | 22 | 179 | 6.4 | 14.5 | 0.00 | 0.00 | 0.00 | 70 | 1007.7 |
| 20260505023506 | 22 | 227 | 6.4 | 14.5 | 0.00 | 0.00 | 0.00 | 70 | 1007.6 |
| 20260505023021 | 22 | 212 | 6.4 | 9.7 | 0.00 | 0.00 | 0.00 | 70 | 1007.6 |
| 20260505022505 | 22 | 218 | 4.8 | 14.5 | 0.00 | 0.00 | 0.00 | 70 | 1007.6 |
| 20260505022008 | 22 | 205 | 6.4 | 14.5 | 0.00 | 0.00 | 0.00 | 70 | 1007.6 |
| 20260505021525 | 22 | 178 | 4.8 | 14.5 | 0.00 | 0.00 | 0.00 | 69 | 1007.6 |
| 20260505021007 | 22 | 222 | 6.4 | 11.3 | 0.00 | 0.00 | 0.00 | 69 | 1007.6 |
| 20260505020512 | 22 | 224 | 6.4 | 11.3 | 0.00 | 0.00 | 0.00 | 69 | 1007.6 |
| 20260505020030 | 22 | 200 | 4.8 | 11.3 | 0.00 | 0.00 | 0.00 | 69 | 1007.6 |
| 20260505015510 | 22 | 208 | 4.8 | 12.9 | 0.00 | 0.00 | 0.00 | 69 | 1007.6 |
| 20260505015014 | 22 | 178 | 6.4 | 12.9 | 0.00 | 0.00 | 0.00 | 69 | 1007.6 |
| 20260505014533 | 22 | 194 | 4.8 | 9.7 | 0.00 | 0.00 | 0.00 | 68 | 1007.7 |
| 20260505014003 | 22 | 204 | 4.8 | 14.5 | 0.00 | 0.00 | 0.00 | 68 | 1007.7 |
| 20260505013503 | 22 | 196 | 4.8 | 14.5 | 0.00 | 0.00 | 0.00 | 68 | 1007.5 |
| 20260505013019 | 22 | 142 | 4.8 | 11.3 | 0.00 | 0.00 | 0.00 | 67 | 1007.7 |
| 20260505012507 | 22 | 180 | 3.2 | 8.0 | 0.00 | 0.00 | 0.00 | 67 | 1007.7 |
| 20260505012008 | 23 | 188 | 3.2 | 9.7 | 0.00 | 0.00 | 0.00 | 67 | 1007.8 |
| 20260505011523 | 23 | 226 | 4.8 | 9.7 | 0.00 | 0.00 | 0.00 | 66 | 1007.6 |
| 20260505011010 | 23 | 195 | 4.8 | 11.3 | 0.00 | 0.00 | 0.00 | 66 | 1007.5 |
| 20260505010510 | 23 | 214 | 3.2 | 12.9 | 0.00 | 0.00 | 0.00 | 66 | 1007.5 |
| 20260505010032 | 23 | 209 | 4.8 | 12.9 | 0.00 | 0.00 | 0.00 | 65 | 1007.5 |
| 20260505005507 | 23 | 234 | 6.4 | 14.5 | 0.00 | 0.00 | 0.00 | 65 | 1007.6 |
| 20260505005010 | 23 | 184 | 6.4 | 14.5 | 0.00 | 0.00 | 0.00 | 64 | 1007.6 |
| 20260505004539 | 23 | 246 | 4.8 | 11.3 | 0.00 | 0.00 | 0.00 | 64 | 1007.5 |
| 20260505004010 | 23 | 215 | 6.4 | 14.5 | 0.00 | 0.00 | 0.00 | 63 | 1007.6 |
| 20260505003515 | 24 | 209 | 8.0 | 16.1 | 0.00 | 0.00 | 0.00 | 63 | 1007.6 |
| 20260505003017 | 24 | 182 | 6.4 | 16.1 | 0.00 | 0.00 | 0.00 | 63 | 1007.5 |
| 20260505002507 | 24 | 216 | 6.4 | 14.5 | 0.00 | 0.00 | 0.00 | 63 | 1007.5 |
| 20260505002007 | 24 | 209 | 6.4 | 19.3 | 0.00 | 0.00 | 0.00 | 62 | 1007.6 |
| 20260505001522 | 24 | 186 | 8.0 | 19.3 | 0.00 | 0.00 | 0.00 | 62 | 1007.7 |
| 20260505001006 | 24 | 205 | 6.4 | 14.5 | 0.00 | 0.00 | 0.00 | 61 | 1007.7 |
| 20260505000507 | 24 | 189 | 8.0 | 16.1 | 0.00 | 0.00 | 0.00 | 60 | 1007.7 |
| 20260505000027 | 24 | 218 | 8.0 | 19.3 | 0.00 | 0.00 | 0.00 | 60 | 1007.5 |
| 20260504235507 | 25 | 232 | 9.7 | 19.3 | 0.00 | 0.00 | 0.00 | 59 | 1007.6 |
| 20260504235009 | 25 | 234 | 6.4 | 16.1 | 0.00 | 0.00 | 0.00 | 59 | 1007.7 |
| 20260504234535 | 25 | 184 | 9.7 | 16.1 | 0.00 | 0.00 | 0.00 | 58 | 1007.8 |
| 20260504234008 | 25 | 229 | 11.3 | 19.3 | 0.00 | 0.00 | 0.00 | 57 | 1007.8 |
| 20260504233508 | 25 | 218 | 8.0 | 19.3 | 0.00 | 0.00 | 0.00 | 56 | 1007.9 |
| 20260504233031 | 25 | 213 | 6.4 | 20.9 | 0.00 | 0.00 | 0.00 | 56 | 1008.1 |
| 20260504232510 | 25 | 236 | 12.9 | 22.5 | 0.00 | 0.00 | 0.00 | 56 | 1008.0 |
| 20260504232013 | 25 | 222 | 11.3 | 22.5 | 0.00 | 0.00 | 0.00 | 56 | 1007.9 |
| 20260504231542 | 26 | 200 | 11.3 | 19.3 | 0.00 | 0.00 | 0.00 | 55 | 1008.1 |
| 20260504231008 | 26 | 214 | 8.0 | 24.1 | 0.00 | 0.00 | 0.00 | 54 | 1008.2 |
| 20260504230507 | 26 | 212 | 11.3 | 24.1 | 0.00 | 0.00 | 0.00 | 54 | 1008.2 |
| 20260504230024 | 26 | 214 | 12.9 | 24.1 | 0.00 | 0.00 | 0.00 | 52 | 1008.3 |
| 20260504225513 | 26 | 218 | 8.0 | 17.7 | 0.00 | 0.00 | 0.00 | 53 | 1008.4 |
| 20260504225010 | 26 | 221 | 8.0 | 20.9 | 0.00 | 0.00 | 0.00 | 53 | 1008.3 |
| 20260504224529 | 26 | 196 | 11.3 | 20.9 | 0.00 | 0.00 | 0.00 | 52 | 1008.2 |
| 20260504224006 | 26 | 201 | 9.7 | 27.4 | 0.00 | 0.00 | 0.00 | 51 | 1008.3 |
| 20260504223511 | 26 | 226 | 9.7 | 27.4 | 0.00 | 0.00 | 0.00 | 52 | 1008.4 |
| 20260504223027 | 26 | 196 | 11.3 | 19.3 | 0.00 | 0.00 | 0.00 | 53 | 1008.5 |
| 20260504222508 | 26 | 217 | 9.7 | 19.3 | 0.00 | 0.00 | 0.00 | 52 | 1008.5 |
| 20260504222014 | 26 | 221 | 11.3 | 25.7 | 0.00 | 0.00 | 0.00 | 52 | 1008.5 |
| 20260504221530 | 26 | 220 | 12.9 | 22.5 | 0.00 | 0.00 | 0.00 | 51 | 1008.6 |
| 20260504221009 | 26 | 243 | 12.9 | 22.5 | 0.00 | 0.00 | 0.00 | 52 | 1008.6 |
| 20260504220509 | 26 | 227 | 12.9 | 24.1 | 0.00 | 0.00 | 0.00 | 53 | 1008.6 |
| 20260504220022 | 26 | 233 | 14.5 | 24.1 | 0.00 | 0.00 | 0.00 | 51 | 1008.8 |
| 20260504215507 | 26 | 205 | 14.5 | 24.1 | 0.00 | 0.00 | 0.00 | 50 | 1008.9 |
| 20260504215015 | 26 | 229 | 14.5 | 32.2 | 0.00 | 0.00 | 0.00 | 51 | 1009.0 |
| 20260504214504 | 26 | 238 | 12.9 | 32.2 | 0.00 | 0.00 | 0.00 | 50 | 1008.9 |
| 20260504214004 | 26 | 200 | 16.1 | 25.7 | 0.00 | 0.00 | 0.00 | 51 | 1009.0 |
| 20260504213503 | 26 | 219 | 14.5 | 20.9 | 0.00 | 0.00 | 0.00 | 50 | 1009.0 |
| 20260504213009 | 26 | 220 | 11.3 | 29.0 | 0.00 | 0.00 | 0.00 | 50 | 1009.1 |
| 20260504212504 | 26 | 172 | 16.1 | 29.0 | 0.00 | 0.00 | 0.00 | 51 | 1009.1 |
| 20260504212007 | 26 | 215 | 16.1 | 25.7 | 0.00 | 0.00 | 0.00 | 49 | 1009.2 |
| 20260504211513 | 26 | 204 | 16.1 | 24.1 | 0.00 | 0.00 | 0.00 | 49 | 1009.2 |
| 20260504211006 | 26 | 223 | 16.1 | 27.4 | 0.00 | 0.00 | 0.00 | 49 | 1009.3 |
| 20260504210507 | 26 | 240 | 16.1 | 30.6 | 0.00 | 0.00 | 0.00 | 49 | 1009.4 |
| 20260504210019 | 26 | 208 | 14.5 | 27.4 | 0.00 | 0.00 | 0.00 | 50 | 1009.5 |
| 20260504205507 | 26 | 169 | 14.5 | 24.1 | 0.00 | 0.00 | 0.00 | 49 | 1009.7 |
| 20260504205008 | 26 | 194 | 11.3 | 24.1 | 0.00 | 0.00 | 0.00 | 49 | 1009.9 |
| 20260504204551 | 26 | 200 | 14.5 | 24.1 | 0.00 | 0.00 | 0.00 | 49 | 1009.9 |
| 20260504204010 | 26 | 191 | 12.9 | 24.1 | 0.00 | 0.00 | 0.00 | 47 | 1010.0 |
| 20260504203509 | 26 | 188 | 14.5 | 24.1 | 0.00 | 0.00 | 0.00 | 49 | 1010.2 |
| 20260504203009 | 26 | 199 | 16.1 | 25.7 | 0.00 | 0.00 | 0.00 | 47 | 1010.5 |
| 20260504202503 | 26 | 232 | 19.3 | 27.4 | 0.00 | 0.00 | 0.00 | 47 | 1010.6 |
| 20260504202003 | 26 | 209 | 14.5 | 27.4 | 0.00 | 0.00 | 0.00 | 48 | 1010.6 |
| 20260504201527 | 26 | 215 | 14.5 | 25.7 | 0.00 | 0.00 | 0.00 | 47 | 1010.8 |